Weather Roundup
Issued by NWS

Home | Current Version | Previous Version | Text Only | Print | Product List | Glossary On
Versions: 1 2 3 4 5 6 7 8 9 10 11 12 13 14 15 16 17 18 19 20 21 22 23 24 25 26 27 28 29 30 31 32 33 34 35 36 37 38 39 40 41 42 43 44 45 46 47 48 49 50
727
NZUS93 KARX 231359
HRRWXR

CURRENT HOURLY OBSERVATIONS ACROSS
MUCH OF THE UPPER MISSISSIPPI VALLEY
NATIONAL WEATHER SERVICE LA CROSSE WI
900 AM CDT SAT SEP 23 2017


...SOUTHEAST MINNESOTA...


CITY           SKY/WX    TMP DP  RH WIND       PRES   REMARKS
ROCHESTER      SUNNY     75  68  78 S10       30.03R
ROCHESTER/MAYO FAIR      75  67  76 S8        30.02R
WINONA         SUNNY     77  66  69 CALM      30.02R
AUSTIN         SUNNY     73  66  78 S10       30.01S
ALBERT LEA     SUNNY     77  70  78 S7        30.00S
DODGE CENTER   SUNNY     75  64  69 S10G20    30.01S
PRESTON        SUNNY     74  65  75 SW10      30.05R
OWATONNA       MOSUNNY   73  66  78 S6        30.00R
FARIBAULT      MOSUNNY   73  68  83 S5        29.99R
$$

...ELSEWHERE IN MINNESOTA...


CITY           SKY/WX    TMP DP  RH WIND       PRES   REMARKS
MINNEAPOLIS    MOSUNNY   77  69  76 S8        29.97R
INTNL FALLS    CLOUDY    57  56  96 W8        29.93R
DULUTH         CLOUDY    72  69  90 SW8       29.94R
RED WING       PTSUNNY   75  64  69 CALM      29.98R
REDWOOD FALLS  CLOUDY    63  57  81 E3        29.96S
MANKATO        SUNNY     74  68  81 SW8       29.98R
WORTHINGTON    CLOUDY    71  68  90 CALM      29.99R
FAIRMONT       MOSUNNY   74  68  81 S10       29.98R
$$

...SOUTHWEST WISCONSIN...


CITY           SKY/WX    TMP DP  RH WIND       PRES   REMARKS
LA CROSSE      SUNNY     78  67  68 S7        30.03R
PRAIRIE DU CHI SUNNY     73  62  68 E3        30.05R
BOSCOBEL       SUNNY     75  66  73 CALM      30.06R
LONE ROCK      NOT AVBL
PLATTEVILLE    SUNNY     74  67  79 SE7       30.08R
FORT MC COY    SUNNY     74  65  75 CALM      30.06R
MAUSTON-NEW LI SUNNY     75  67  74 CALM      30.05S
VIROQUA        FAIR      74  66  77 S6        30.07R
WIS DELLS      SUNNY     76  63  64 SW7       30.07S
$$

...ELSEWHERE IN WISCONSIN...


CITY           SKY/WX    TMP DP  RH WIND       PRES   REMARKS
MILWAUKEE      MOSUNNY   80  66  62 SW6       30.09R
MADISON        MOSUNNY   75  66  73 S7        30.08R
GREEN BAY      SUNNY     76  69  79 S5        30.06R
EAU CLAIRE     NOT AVBL
BLACK RVR FLS  FAIR      73  67  81 SE3       30.04R
MEDFORD        SUNNY     71  65  82 S10       30.05R
WAUSAU         SUNNY     73  65  75 SW5       30.05R
WIS RAPIDS     SUNNY     76  66  71 SW8       30.07S
MARSHFIELD     SUNNY     74  64  71 S8        30.06R
RICE LAKE      MOSUNNY   74  67  76 S7        30.01R
$$

...NORTHEAST IOWA...


CITY           SKY/WX    TMP DP  RH WIND       PRES   REMARKS
WATERLOO       SUNNY     75  65  70 S7        30.04R
DUBUQUE        SUNNY     75  65  70 S3        30.08R
DECORAH        SUNNY     75  66  73 S6        30.05R
MASON CITY     SUNNY     73  67  81 S10       30.03R
CHARLES CITY   PTSUNNY   73  68  83 S7        30.05R
OELWEIN        SUNNY     75  68  78 S8        30.07R
$$

...ELSEWHERE IN IOWA...


CITY           SKY/WX    TMP DP  RH WIND       PRES   REMARKS
DES MOINES     MOSUNNY   75  68  78 S9        30.02R
IOWA CITY      SUNNY     74  65  73 SE3       30.07R
FORT DODGE     SUNNY     75  68  78 S8        30.01R
MARSHALLTOWN   SUNNY     75  69  81 S6        30.03R
CEDAR RAPIDS   SUNNY     75  64  68 S7        30.05R
$$

...NORTHERN ILLINOIS...


CITY           SKY/WX    TMP DP  RH WIND       PRES   REMARKS
CHICAGO-OHARE  MOSUNNY   81  66  60 S5        30.10R
CHICAGO-MIDWAY SUNNY     81  67  62 S5        30.10R
MOLINE         SUNNY     78  65  63 CALM      30.07R
ROCKFORD       SUNNY     75  67  76 S3        30.10S
PEORIA         SUNNY     77  68  73 CALM      30.09R
$$

NOTE: "FAIR" INDICATES FEW OR NO CLOUDS BELOW 12,000 FEET WITH NO
SIGNIFICANT WEATHER AND/OR OBSTRUCTIONS TO VISIBILITY. WIND
SPEEDS ARE IN MILES-PER-HOUR.




USA.gov is the U.S. government's official web portal to all federal, state and local government web resources and services.